Location: Newark
(34.6283°N, 36.0776°E)
Time: 11:20:08
(UTC+00:00)

Vanguard 2 - Visible Passes

Search period start: 23 September 2019 00:00
Search period end: 03 October 2019 00:00
Orbit: 554 x 2937 km, 32.9° (Epoch: 22 September)

Date Brightness Start Highest point End Pass type
(mag) Time Alt. Az. Time Alt. Az. Time Alt. Az.
23 Sep 9.0 01:53:10 25° W 02:01:16 81° S 02:08:52 10° E visible
23 Sep 11.1 22:07:05 18° E 22:07:05 18° E 22:09:15 10° E visible
24 Sep 9.5 00:08:29 71° S 00:08:43 71° SSE 00:18:40 10° E visible
24 Sep 9.0 02:09:52 19° W 02:19:23 81° S 02:26:48 10° E visible
24 Sep 10.9 22:23:46 25° E 22:23:46 25° E 22:27:33 10° E visible
25 Sep 9.4 00:25:10 70° SW 00:26:52 78° S 00:36:41 10° E visible
25 Sep 9.0 02:26:33 14° W 02:37:28 78° S 02:44:43 10° ESE visible
25 Sep 10.6 22:40:27 34° E 22:40:27 34° E 22:45:44 10° E visible
26 Sep 9.4 00:41:50 60° WSW 00:45:03 82° S 00:54:41 10° E visible
26 Sep 9.0 02:43:16 10° W 02:55:30 71° SSW 03:02:35 10° ESE visible
26 Sep 10.3 22:57:08 43° E 22:57:08 43° E 23:03:50 10° E visible
27 Sep 9.4 00:58:32 49° W 01:03:15 83° S 01:12:40 10° E visible
27 Sep 9.1 03:01:39 10° W 03:13:26 61° SSW 03:20:21 10° ESE visible
27 Sep 10.1 23:13:50 54° E 23:13:50 54° E 23:21:54 10° E visible
28 Sep 9.3 01:15:14 40° W 01:21:25 82° S 01:30:39 10° E visible
28 Sep 11.6 18:50:49 10° S 18:51:19 11° S 18:51:19 11° S visible
28 Sep 11.5 21:29:10 13° E 21:29:10 13° E 21:30:05 10° E visible
28 Sep 9.8 23:30:34 67° ESE 23:30:34 67° ESE 23:39:58 10° E visible
29 Sep 9.3 01:31:58 33° W 01:39:33 78° SSW 01:48:34 10° ESE visible
29 Sep 11.5 19:07:12 10° SSW 19:08:40 13° SSW 19:08:40 13° SSW visible
29 Sep 11.3 21:45:55 18° E 21:45:55 18° E 21:48:17 10° E visible
29 Sep 9.7 23:47:19 79° ESE 23:47:19 79° ESE 23:58:01 10° E visible
30 Sep 9.4 01:48:43 26° W 01:57:37 71° SSW 02:06:25 10° ESE visible
30 Sep 11.3 17:20:41 10° SSE 17:24:37 14° SSE 17:24:37 14° SSE visible
30 Sep 11.5 19:24:05 10° SSW 19:26:05 15° SSW 19:26:05 15° SSW visible
30 Sep 11.1 22:02:43 24° E 22:02:43 24° E 22:06:26 10° E visible
01 Oct 9.6 00:04:07 83° SSW 00:04:31 84° S 00:16:03 10° E visible
01 Oct 9.4 02:05:32 21° W 02:15:33 62° SSW 02:24:09 10° SE visible
01 Oct 11.1 17:35:37 10° S 17:42:03 21° SSE 17:42:03 21° SSE visible
01 Oct 11.5 19:41:19 10° SW 19:43:31 16° SW 19:43:31 16° SW visible
01 Oct 10.9 22:19:34 30° E 22:19:34 30° E 22:24:34 10° E visible
02 Oct 9.6 00:20:59 73° WSW 00:22:45 82° S 00:34:03 10° ESE visible
02 Oct 9.6 02:22:23 16° W 02:33:20 51° SSW 02:41:43 10° SE visible
02 Oct 10.9 17:51:37 10° SSW 17:59:31 27° SSE 17:59:31 27° SSE visible
02 Oct 11.5 19:58:49 10° SW 20:35:04 - ENE 20:00:58 16° SW visible
02 Oct 10.7 22:36:29 37° E 22:36:29 37° E 22:42:41 10° E visible
